Location: Wyoming Skies Observatory
(43.6910°N, 108.3105°W)
Time: 20:09:48
(UTC-06:00)

Daily predictions for brighter satellites

Satellite Brightness Start Highest point End
(mag) Time Altitude Azimuth Time Altitude Azimuth Time Altitude Azimuth
Cosmos 1898 Rocket 3.6 19:49:20 10° S 19:54:31 57° ESE 19:59:43 10° NNE
Cosmos 1934 Rocket 4.4 19:51:24 10° SSE 19:57:04 41° E 20:02:42 10° NNE
H-2A R/B 3.4 19:55:03 10° SE 19:58:38 37° ENE 20:02:17 10° N
BREEZE-M DEB (TANK) 3.8 19:58:30 10° WNW 20:00:47 23° N 20:02:46 10° NE
FENGYUN 3A 3.7 19:55:35 10° SSE 20:00:56 66° ENE 20:06:18 10° N
Cosmos 1707 2.7 19:58:10 10° N 20:02:06 83° E 20:05:59 10° S
Meteor 1-24 Rocket 3.9 19:58:25 10° N 20:03:44 51° ENE 20:09:12 10° SSE
Cosmos 2263 Rocket 4.3 20:01:03 10° WSW 20:05:56 29° NW 20:10:50 10° N
Meteor 2-5 Rocket 3.9 20:04:37 10° NNW 20:10:21 85° W 20:16:10 10° S
Lacrosse 5 rocket 3.5 20:09:25 10° NNW 20:11:41 14° NNE 20:13:53 10° NE
BREEZE-M DEB (TANK) 3.7 20:09:21 10° SSW 20:11:53 32° SE 20:17:16 10° ENE
HJ-1C 3.3 20:09:05 10° SSE 20:12:27 77° ENE 20:15:53 10° N
Geosat 4.5 20:07:50 10° NE 20:12:32 38° ESE 20:17:11 10° S
Meteor 1-4 Rocket 4.2 20:14:46 12° ESE 20:15:58 14° E 20:17:49 10° ENE
ALOS 2.3 20:12:05 10° SSE 20:16:46 86° WSW 20:21:29 10° NNW
Cosmos 1821 Rocket 4.0 20:10:34 10° S 20:16:56 75° E 20:23:18 10° NNE
Cosmos 2082 Rocket 3.5 20:13:16 10° N 20:17:51 24° NE 20:21:38 13° E
Cosmos 1544 4.4 20:15:07 10° SE 20:17:52 21° E 20:20:38 10° NE
Cosmos 1766 3.5 20:14:13 10° SSE 20:17:54 44° E 20:21:37 10° NNE
RESURS DK-1 2.6 20:13:54 10° NNW 20:17:56 49° ENE 20:21:56 10° SE
GP-B 4.5 20:15:06 10° ESE 20:18:19 20° ENE 20:21:32 10° NNE
Cosmos 1812 Rocket 3.5 20:14:09 10° S 20:18:31 64° E 20:22:52 10° NNE
Cosmos 858 Rocket 4.5 20:13:51 10° SSW 20:19:07 82° ESE 20:24:27 10° NNE
Resurs 01 Rocket 1.6 20:15:04 10° SSE 20:19:26 67° ENE 20:23:50 10° N
SL-27 R/B 2.7 20:16:45 10° N 20:20:14 50° ENE 20:23:45 10° SE
USA 267 4.4 20:15:22 10° ENE 20:20:58 32° NNE 20:26:36 10° NW
Cosmos 1818 4.5 20:17:06 10° NNW 20:22:02 33° NE 20:26:00 14° ESE
Cosmos 1535 Rocket 4.5 20:17:43 10° S 20:23:58 82° E 20:30:20 10° N
Meteor 1-29 4.4 20:21:50 10° NE 20:24:22 19° E 20:26:19 13° SE
COSMOS 2406 3.9 20:19:49 10° NNW 20:25:27 57° WSW 20:31:01 10° S
Cosmos 1937 Rocket 3.5 20:22:08 10° SSW 20:27:21 80° ESE 20:32:41 10° NNE
Lacrosse 5 2.1 20:26:42 10° SSW 20:31:32 46° SE 20:36:23 10° ENE
Cosmos 1076 Rocket 4.3 20:30:22 10° NNE 20:34:10 31° ENE 20:36:38 18° SE
Cosmos 1605 Rocket 4.1 20:28:47 10° SSE 20:34:51 57° E 20:41:03 10° NNE
Cosmos 2298 Rocket 4.3 20:30:03 10° SSW 20:35:19 73° WNW 20:40:40 10° NNE
SeaSat 1 3.7 20:33:42 10° S 20:38:21 42° WSW 20:43:03 10° NW
Cosmos 1844 3.9 20:35:04 10° SSW 20:40:50 82° WNW 20:46:41 10° NNE
Spot 1 4.3 20:38:58 10° SSE 20:43:28 62° ENE 20:48:17 10° N
Cosmos 2123 Rocket 4.0 20:39:51 10° N 20:46:14 89° E 20:52:32 10° S
CZ-2D R/B 3.3 20:44:10 10° S 20:48:01 81° WSW 20:51:56 10° NNW
CZ-3B DEB 2.8 20:36:51 10° SW 20:48:14 89° NW 20:53:14 10° NE
Helios 1B rocket 2.5 20:47:28 10° NNE 20:51:33 54° E 20:55:35 10° S
Cosmos 1674 3.5 20:49:51 10° NNE 20:53:13 30° ENE 20:53:31 30° E
Cosmos 1805 3.2 20:50:41 10° S 20:54:31 61° E 20:58:23 10° NNE
Helios 1A 2.8 20:50:45 12° SSE 20:54:36 78° ENE 20:58:49 10° N
Cosmos-2242 3.9 20:58:46 28° E 20:58:46 28° E 21:02:02 10° NNE
Cosmos 1867 4.2 20:53:44 10° S 20:58:27 31° ESE 21:03:13 10° NE
Timation 2 Rocket 4.4 20:55:57 10° NNW 21:02:02 43° NE 21:04:44 28° ESE
Cosmos 1340 Rocket 4.0 20:59:48 10° NNE 21:02:52 26° ENE 21:02:52 26° ENE
Lacrosse 4 Rocket 3.1 20:59:54 10° WSW 21:03:37 34° NW 21:07:21 10° NNE
Cosmos 1153 Rocket 4.5 20:57:54 10° S 21:04:12 66° E 21:10:33 10° NNE
CZ-4B DEB 4.4 21:05:12 27° SSE 21:07:02 89° ENE 21:10:39 10° NNW
Cosmos 1470 4.1 21:09:01 24° NE 21:09:01 24° NE 21:11:07 10° NNE
Cosmos 372 Rocket 4.2 21:09:51 10° S 21:14:39 43° ESE 21:19:31 10° NNE
Cosmos 1758 3.3 21:14:49 10° S 21:18:47 81° W 21:22:48 10° N
YAOGAN 6 3.6 21:20:41 33° NE 21:20:41 33° NE 21:23:20 10° N
Tiangong 1 2.7 21:18:11 10° W 21:20:13 24° SW 21:20:13 24° SW
Cosmos 2344 4.0 21:16:19 10° SW 21:23:57 69° NW 21:32:50 10° NE
SJ-11-01 4.2 21:22:46 31° SSE 21:25:03 89° WSW 21:29:49 10° NNW
Cosmos 1447 Rocket 4.5 21:19:37 10° N 21:25:47 81° W 21:31:29 12° S
H-2A R/B 3.7 21:26:32 19° NE 21:26:32 19° NE 21:29:37 10° NNE
Cosmos 1939 Rocket 2.8 21:25:21 51° SSE 21:26:22 89° ENE 21:30:33 10° NNW
Cosmos 158 Rocket 3.9 21:22:34 10° NNW 21:27:39 67° ENE 21:28:50 50° SE
USA 186 3.8 21:28:06 17° WSW 21:28:15 17° W 21:29:53 10° NW
Cosmos 1953 2.6 21:25:01 10° SSW 21:29:03 67° W 21:33:07 10° N
Cosmos 1408 Rocket 3.5 21:24:44 10° N 21:29:14 87° E 21:30:23 50° SSE
USA 215 3.1 21:23:38 10° NE 21:30:13 78° SE 21:36:44 10° SW
Abrixas 3.9 21:27:34 10° WNW 21:29:25 36° WNW 21:29:25 36° WNW
Cosmos 1833 Rocket 2.6 21:27:19 10° NNW 21:32:57 73° ENE 21:34:24 50° SE
Cosmos 2278 Rocket 2.9 21:28:01 10° SW 21:33:34 55° WNW 21:39:10 10° NNE
Cosmos 1459 Rocket 3.9 21:29:43 20° S 21:34:07 66° E 21:40:16 10° NNE
Cosmos 2173 Rocket 3.9 21:32:35 25° S 21:36:15 67° E 21:42:27 10° NNE
Envisat 3.3 21:34:42 25° S 21:37:41 65° WSW 21:42:45 10° NNW
Cosmos 1125 Rocket 3.6 21:39:44 10° SSW 21:44:55 76° WNW 21:50:10 10° NNE
Cosmos 2297 3.6 21:40:09 10° SSW 21:45:51 89° ESE 21:51:39 10° NNE
MetOp-B 4.2 21:48:10 58° ENE 21:48:10 58° ENE 21:53:26 10° N
Cosmos 1048 Rocket 4.1 21:43:07 10° NNW 21:48:14 68° WSW 21:49:28 49° SSW
Meteor 1-4 Rocket 4.2 21:48:51 18° SW 21:50:49 32° WNW 21:54:00 10° N
Lacrosse 5 rocket 2.5 21:48:10 10° NW 21:50:52 32° N 21:50:52 32° N
GP-B 4.4 21:52:13 16° SSW 21:55:21 38° W 21:59:31 10° NNW
COSMOS 2487 4.1 21:56:16 10° NNW 21:58:41 35° WNW 21:58:41 35° WNW
Cosmos 1271 Rocket 4.2 22:03:26 34° N 22:03:26 34° N 22:05:52 10° N
Cosmos 2082 Rocket 2.5 21:56:45 10° NNW 22:02:22 61° WSW 22:03:31 50° SSW
USA 267 3.3 22:02:01 54° E 22:03:16 64° NNE 22:09:44 10° NW
ERS-1 Rocket 3.1 22:03:31 62° SW 22:04:00 67° WSW 22:09:03 10° NNW
Cosmos 1818 4.3 22:00:35 10° NW 22:05:44 45° WSW 22:06:41 41° SW
Cosmos 2016 Rocket 3.8 22:06:36 69° SSE 22:07:25 83° E 22:13:37 10° N
SPOT 1/Viking Rocket 4.4 22:10:27 41° NNE 22:10:27 41° NNE 22:14:08 10° N
Cosmos 1725 Rocket 4.2 22:14:34 54° NE 22:14:34 54° NE 22:19:31 10° NNE
Cosmos 2251 Rocket 4.0 22:08:36 10° NNW 22:12:47 51° NNE 22:12:47 51° NNE
Lacrosse 5 3.1 22:09:50 10° WSW 22:14:36 40° NNW 22:16:45 27° NNE
SPOT 5 3.3 22:17:06 67° N 22:17:06 67° N 22:21:43 10° NNW
Tsikada Rocket 4.0 22:17:07 10° N 22:22:39 68° NNE 22:22:39 68° NNE
Meteor 2-17 Rocket 4.5 22:23:37 69° SW 22:24:14 76° W 22:30:25 10° N
SL-08 R/B 4.4 22:26:41 84° WSW 22:26:46 84° W 22:33:14 10° N
ARGOS 3.6 22:29:44 58° NNW 22:29:44 58° NNW 22:34:00 10° NNW
Terra 4.0 22:51:55 20° N 22:51:55 20° N 22:53:28 10° N
CZ-3B DEB 3.9 22:55:46 10° WNW 23:01:02 24° NNW 23:01:05 24° NNW
H-2A R/B 3.6 23:07:10 34° NNW 23:07:10 34° NNW 23:10:12 10° NNW
USA 215 4.2 23:07:05 11° NE 23:12:55 42° NNW 23:18:58 10° W
